Location: City of Westminster
(51.5000°N, 0.1167°W)
Time: 00:57:11
(UTC+00:00)

Daily predictions for brighter satellites

Satellite Brightness Start Highest point End
(mag) Time Altitude Azimuth Time Altitude Azimuth Time Altitude Azimuth
Meteor 1-24 Rocket 3.8 00:02:18 21° SSW 00:06:19 77° WNW 00:11:58 10° N
USA 234 4.0 00:00:18 10° ENE 00:06:40 57° N 00:13:03 10° W
Cosmos 773 Rocket 4.5 00:03:37 10° NW 00:08:30 45° WSW 00:11:17 23° SSW
Cosmos 2227 Rocket 2.8 00:05:20 22° SSE 00:08:32 44° ESE 00:13:53 10° NE
Cosmos 304 Rocket 3.8 00:06:24 22° SSW 00:09:30 82° WNW 00:14:17 10° NNE
Cosmos 1892 2.6 00:09:05 32° SSE 00:10:31 64° E 00:14:01 10° NNE
Cosmos 332 Rocket 4.2 00:09:47 25° S 00:12:25 52° ESE 00:17:12 10° NNE
Cosmos 2181 Rocket 4.1 00:06:41 10° NNW 00:12:52 69° W 00:16:56 22° S
Cosmos 1980 4.0 00:07:53 10° NW 00:13:23 51° WSW 00:16:41 23° S
CENTAUR R/B 3.3 00:12:18 21° SSE 00:15:25 36° ESE 00:21:37 10° NE
GEOS 3 Rocket 3.9 00:14:08 10° NE 00:19:09 48° SE 00:22:03 23° S
H-2A R/B 1.9 00:17:24 10° NNE 00:21:43 90° SW 00:24:02 26° SSW
Cosmos 1538 Rocket 4.2 00:17:40 10° NNW 00:22:52 72° ENE 00:27:12 15° SSE
Cosmos 1503 Rocket 4.2 00:19:44 19° SSW 00:23:34 75° WNW 00:28:53 10° NNE
Cosmos 1777 Rocket 4.0 00:21:13 21° SSW 00:24:48 85° WNW 00:30:07 10° NNE
SL-4 R/B 2.7 00:21:22 10° W 00:25:05 33° SSW 00:26:25 27° S
Cosmos 2151 Rocket 4.0 00:22:37 10° NNW 00:26:53 50° W 00:29:10 25° SSW
Cosmos 1174 4.4 00:23:29 10° NW 00:28:23 50° WSW 00:30:27 26° S
NOSS 8 (A) 4.2 00:25:39 10° NW 00:28:35 62° SW 00:30:08 28° SSE
Cosmos 2297 Rocket 2.2 00:24:22 19° SW 00:28:36 81° WNW 00:34:17 10° NNE
Cosmos 2074 Rocket 4.0 00:24:31 22° S 00:28:45 85° E 00:35:01 10° N
Cosmos 2219 4.0 00:27:36 20° SSE 00:30:54 37° ESE 00:36:01 10° NE
Cosmos 2084 Rocket 3.5 00:29:51 26° SSW 00:32:05 60° SE 00:36:10 10° NE
ALOS 2 4.4 00:30:59 14° SW 00:33:09 20° W 00:36:25 10° NW
Okean 2 Rocket 3.6 00:29:23 10° NNW 00:33:40 47° W 00:36:03 24° SSW
Cosmos 1455 Rocket 3.6 00:30:00 10° N 00:34:22 55° ENE 00:37:36 17° SSE
ATLAS CENTAUR R/B 4.2 00:36:56 10° NW 00:38:56 14° NNW 00:40:57 10° NNE
Aureole 1 Rocket 4.1 00:38:34 20° SE 00:40:21 29° E 00:44:09 10° NE
Cosmos 1825 2.3 00:42:47 27° SW 00:44:23 54° WNW 00:47:46 10° N
Cosmos 1674 Rocket 4.0 00:41:51 22° SW 00:44:28 54° WNW 00:48:45 10° N
Cosmos 1378 Rocket 4.3 00:43:13 20° SW 00:45:55 45° WNW 00:50:09 10° N
Cosmos 1025 Rocket 3.0 00:50:34 24° S 00:53:08 84° E 00:57:29 10° NNE
Cosmos 2221 Rocket 4.2 00:51:16 20° SW 00:54:03 48° WNW 00:58:23 10° N
BREEZE-M DEB (TANK) 2.8 00:50:55 10° W 00:57:09 41° SSW 00:58:59 18° SSE
Resurs 1-4 Rocket 4.0 00:54:17 10° NE 00:58:17 21° E 01:02:15 10° SE
NOSS 3-2 (A) 3.8 00:56:57 21° S 01:00:10 43° ESE 01:05:57 10° NE
Cosmos 1606 3.7 00:57:39 10° N 01:01:01 38° ENE 01:04:04 12° SE
Nadezhda 3 Rocket 4.1 00:55:30 10° NNW 01:01:43 63° W 01:06:12 19° S
Cosmos 2263 Rocket 2.8 00:58:49 19° S 01:02:30 45° ESE 01:07:48 10° NE
CZ-4C R/B 2.7 00:58:16 10° WSW 01:03:00 57° NW 01:09:03 10° NE
Cosmos 1898 Rocket 4.1 01:01:19 18° S 01:04:47 45° ESE 01:09:42 10° NE
COSMOS 2455 3.8 00:59:35 10° WSW 01:05:22 46° NW 01:11:12 10° NNE
Orbus 7S? 2.8 01:03:11 10° WNW 01:05:51 74° NNE 01:09:16 10° ESE
MOZ.5/SAFIR/RUBIN 5/SL-8 4.0 01:05:48 12° SSE 01:10:01 68° ENE 01:14:39 10° N
BlueWalker 3 2.1 01:09:14 10° W 01:12:59 72° N 01:16:44 10° ENE
Helios 1A Rocket 2.7 01:12:04 21° S 01:14:31 74° WSW 01:18:20 10° NNW
Cosmos 1461 4.3 01:14:31 16° SSE 01:16:32 24° ESE 01:19:43 10° ENE
BREEZE-M DEB (TANK) 2.8 01:21:58 10° W 01:25:57 10° SE 01:26:02 10° SE
Cosmos 1680 Rocket 3.5 01:28:03 10° NNW 01:33:17 89° ENE 01:38:30 10° SSE
SL-19 R/B 3.7 01:30:24 10° NNE 01:33:30 64° WNW 01:35:06 23° SSW
Cosmos 1818 3.5 01:28:47 10° NW 01:34:16 72° SW 01:39:42 10° SSE
In-Cosmos 22 Rocket 4.3 01:29:58 17° SSW 01:34:31 86° WNW 01:40:24 10° NNE
Cosmos 2112 Rocket 4.1 01:30:12 10° NNW 01:35:25 81° ENE 01:40:37 10° SSE
SL-16 R/B 2.8 01:31:41 10° NW 01:36:57 40° WSW 01:41:09 15° S
SL-16 R/B 3.7 01:34:06 10° SE 01:39:56 44° ENE 01:45:47 10° N
Cosmos 1603 4.3 01:36:09 10° NNW 01:41:53 61° NE 01:47:34 10° SE
Cosmos 2237 Rocket 4.2 01:41:17 10° WNW 01:43:20 12° W 01:45:23 10° WSW
Cosmos 1869 3.1 01:40:09 10° NNW 01:43:51 68° W 01:46:41 16° S
Cosmos 1544 Rocket 3.5 01:41:32 10° NNW 01:46:01 78° W 01:49:57 13° S
Cosmos 292 Rocket 3.9 01:43:03 17° SW 01:46:46 70° WNW 01:51:36 10° NNE
SL-8 Rocket 4.0 01:43:18 15° SSW 01:48:33 84° W 01:54:48 10° N
USA 234 3.8 01:42:51 10° E 01:49:17 63° NNE 01:55:45 10° WNW
Cosmos 2082 3.7 01:45:35 16° SSW 01:50:12 90° SE 01:55:52 10° NNE
IDEFIX/ARIANE 42P 2.8 01:45:15 10° NNE 01:50:30 68° ESE 01:55:13 13° S
Cosmos 2228 3.0 01:47:13 10° N 01:51:35 89° WSW 01:55:50 10° S
Cosmos 1943 3.1 01:46:30 10° NNW 01:52:10 82° WSW 01:57:46 10° SSE
Cosmos 2227 Rocket 3.1 01:47:17 10° WSW 01:52:39 42° NW 01:58:02 10° NNE
CZ-2C R/B 3.9 01:50:10 10° NNE 01:55:30 48° E 02:00:30 10° S
H-2A R/B 4.4 01:54:29 10° NNW 01:56:46 14° NW 01:59:01 10° W
GEOS 3 Rocket 4.4 01:52:12 10° NE 01:57:11 48° NW 02:02:05 10° WSW
Cosmos 1437 Rocket 4.0 01:53:45 10° SSE 01:57:15 35° E 02:00:44 10° NNE
CZ-2C R/B 2.6 01:52:09 10° SSE 01:57:26 88° WSW 02:02:53 10° NNW
CZ-2D R/B 2.6 01:53:16 10° NNE 01:58:34 58° ESE 02:03:45 10° S
Cosmos 1975 Rocket 3.8 01:58:43 15° SW 02:02:03 40° WNW 02:06:14 10° N
Meteor 1-11 4.5 01:57:52 14° SSW 02:02:51 66° WNW 02:08:39 10° N
Cosmos 1727 Rocket 4.1 01:57:05 10° N 02:03:27 83° E 02:09:49 10° SSE
COBE Rocket 4.1 01:59:55 10° N 02:05:02 69° WNW 02:09:38 13° SSW
CENTAUR R/B 2.9 01:59:37 10° WSW 02:05:35 66° NW 02:13:05 10° NE
H-2A R/B 3.4 02:04:26 10° NNE 02:08:26 85° ESE 02:12:02 13° SSW
USA 238 DEB 4.4 02:06:33 10° S 02:12:15 39° ESE 02:18:25 10° NE
USA 238 4.4 02:06:36 10° S 02:12:18 39° ESE 02:18:27 10° NE
Cosmos 2297 Rocket 4.1 02:09:08 10° W 02:13:32 23° NW 02:17:57 10° NNE
Cosmos 2219 3.9 02:09:31 10° SW 02:14:57 47° NW 02:20:23 10° NNE
NPP 3.7 02:09:37 10° NNE 02:15:03 83° WNW 02:20:16 11° SSW
Cosmos 2341 Rocket 4.4 02:13:09 12° SSW 02:18:43 51° WNW 02:24:47 10° N
Cosmos 1606 Rocket 3.9 02:17:05 10° N 02:21:33 72° ENE 02:25:58 10° SSE
ASTEX 1 3.8 02:16:52 10° SSE 02:21:40 64° E 02:26:30 10° N
Aureole 1 Rocket 4.3 02:20:04 10° WSW 02:23:27 31° NW 02:27:38 10° NNE
Cosmos 921 Rocket 3.0 02:19:31 10° NNW 02:23:48 84° ENE 02:27:59 10° SSE
Cosmos 1867 4.5 02:18:48 10° S 02:23:52 41° ESE 02:28:59 10° NE
Cosmos 2227 4.4 02:18:50 11° SSW 02:24:24 70° ESE 02:30:09 10° NNE
ADEOS II 2.4 02:20:30 10° NNE 02:25:45 66° ESE 02:30:57 10° S
Meteor 2-13 Rocket 4.5 02:20:43 10° NNW 02:26:46 69° W 02:32:49 10° S
Cosmos 494 Rocket 4.0 02:21:56 10° NNW 02:27:11 82° WSW 02:32:26 10° SSE
Cosmos 372 Rocket 4.5 02:22:28 11° SW 02:27:25 52° WNW 02:32:33 10° NNE
Cosmos 1536 Rocket 3.7 02:27:08 10° SSW 02:31:31 69° WNW 02:35:58 10° N
Cosmos 1606 4.3 02:32:57 10° NW 02:35:27 18° W 02:37:57 10° SW
Cosmos 1726 Rocket 3.8 02:32:42 10° N 02:37:10 77° E 02:41:35 10° SSE
Resurs 1-4 Rocket 2.2 02:33:19 10° NNE 02:38:35 69° WNW 02:43:49 10° SSW
Cosmos 724 4.4 02:36:25 10° NW 02:42:15 87° NE 02:48:06 10° SE
Cosmos 1937 Rocket 4.2 02:38:30 10° SW 02:43:33 46° WNW 02:48:37 10° NNE
Iridium 4 Rocket 4.2 02:41:42 10° N 02:45:55 46° E 02:50:26 10° SSE
Cosmos 2263 Rocket 3.1 02:41:17 10° WSW 02:46:31 40° NW 02:51:46 10° NNE
NOSS 3-2 (A) 4.0 02:45:28 10° WSW 02:50:50 53° NNW 02:57:21 10° NE
BlueWalker 3 2.1 02:47:36 10° WNW 02:51:21 75° NNE 02:55:05 10° E
Cosmos 1812 2.8 02:48:41 10° N 02:52:17 70° E 02:55:50 10° SSE
Cosmos 1821 Rocket 4.2 02:46:43 10° SSW 02:52:41 58° WNW 02:58:47 10° N
CZ-4C R/B 4.2 02:47:57 10° WNW 02:52:42 29° N 02:58:33 10° NE
Cosmos 1461 3.3 02:50:37 10° WSW 02:54:29 50° NW 02:58:16 10° NE
USA 267 3.9 02:48:30 10° ENE 02:54:44 45° SE 03:00:56 10° SSW
Cosmos 2058 4.1 02:51:34 10° SSE 02:55:23 41° E 02:59:15 10° NNE
NOSS 3-2 (C) 3.4 02:51:04 10° SW 02:56:28 79° NW 03:03:02 10° NE
BREEZE M DEB (TANK) 4.4 02:41:37 10° W 02:57:05 73° SSW 03:01:19 10° ESE
AQUA 3.8 02:53:07 10° NNE 02:57:53 83° WNW 03:02:36 10° SSW
Cosmos 1607 4.0 02:52:57 10° NW 02:59:19 64° SW 03:05:31 10° SSE
SAR-Lupe-4 4.0 02:56:58 10° NNE 03:00:31 61° ESE 03:04:01 10° S
